Time,TemperatureF,DewpointF,PressureIn,WindDirection,WindDirectionDegrees,WindSpeedMPH,WindSpeedGustMPH,Humidity,HourlyPrecipIn,Conditions,Clouds,dailyrainin,SoftwareType,DateUTC
2013-01-08 00:00:00,24.8,18.0,30.30,ENE,78,0.0,0.0,75,0.00,,CLR,0.00,VWS V14.00,2013-01-08 05:00:00,
2013-01-08 00:01:00,24.8,18.0,30.30,ENE,78,0.0,0.0,75,0.00,,CLR,0.00,VWS V14.00,2013-01-08 05:01:00,
2013-01-08 00:02:00,24.8,18.0,30.30,ENE,78,0.0,0.0,75,0.00,,CLR,0.00,VWS V14.00,2013-01-08 05:02:00,
2013-01-08 00:07:00,25.0,18.2,30.30,ENE,78,0.0,0.0,75,0.00,,CLR,0.00,VWS V14.00,2013-01-08 05:07:00,
2013-01-08 00:12:00,25.0,18.2,30.30,ENE,78,0.0,0.0,75,0.00,,CLR,0.00,VWS V14.00,2013-01-08 05:12:00,
2013-01-08 00:17:00,25.1,18.3,30.30,ENE,78,0.0,0.0,75,0.00,,CLR,0.00,VWS V14.00,2013-01-08 05:17:00,
2013-01-08 00:22:00,25.3,18.5,30.30,ENE,78,0.0,0.0,75,0.00,,CLR,0.00,VWS V14.00,2013-01-08 05:22:00,
2013-01-08 00:27:00,25.3,18.5,30.30,ENE,78,0.0,0.0,75,0.00,,CLR,0.00,VWS V14.00,2013-01-08 05:27:00,
2013-01-08 00:32:00,25.1,18.0,30.30,ENE,78,0.0,1.0,74,0.00,,CLR,0.00,VWS V14.00,2013-01-08 05:32:00,
2013-01-08 00:37:00,25.0,17.9,30.30,ENE,78,0.0,2.0,74,0.00,,CLR,0.00,VWS V14.00,2013-01-08 05:37:00,
2013-01-08 00:42:00,24.8,17.7,30.30,ENE,78,3.0,3.0,74,0.00,,CLR,0.00,VWS V14.00,2013-01-08 05:42:00,
2013-01-08 00:47:00,24.8,18.0,30.30,ENE,78,0.0,0.0,75,0.00,,CLR,0.00,VWS V14.00,2013-01-08 05:47:00,
2013-01-08 00:52:00,25.0,18.2,30.30,ENE,78,0.0,2.0,75,0.00,,CLR,0.00,VWS V14.00,2013-01-08 05:52:00,
2013-01-08 00:57:00,25.0,18.2,30.30,ENE,78,0.0,1.0,75,0.00,,CLR,0.00,VWS V14.00,2013-01-08 05:57:00,
2013-01-08 01:02:00,25.1,18.6,30.30,ENE,78,0.0,0.0,76,0.00,,CLR,0.00,VWS V14.00,2013-01-08 06:02:00,
2013-01-08 01:07:00,25.4,18.9,30.30,ENE,78,0.0,0.0,76,0.00,,CLR,0.00,VWS V14.00,2013-01-08 06:07:00,
2013-01-08 01:12:00,25.6,19.1,30.30,ENE,78,0.0,0.0,76,0.00,,CLR,0.00,VWS V14.00,2013-01-08 06:12:00,
2013-01-08 01:17:00,25.7,19.2,30.30,ENE,78,0.0,0.0,76,0.00,,CLR,0.00,VWS V14.00,2013-01-08 06:17:00,
2013-01-08 01:22:00,25.6,18.8,30.30,ENE,78,0.0,0.0,75,0.00,,CLR,0.00,VWS V14.00,2013-01-08 06:22:00,
2013-01-08 01:27:00,25.6,18.8,30.30,ENE,78,0.0,1.0,75,0.00,,CLR,0.00,VWS V14.00,2013-01-08 06:27:00,
2013-01-08 01:32:00,25.4,18.9,30.30,SE,130,1.0,2.0,76,0.00,,CLR,0.00,VWS V14.00,2013-01-08 06:32:00,
2013-01-08 01:38:00,25.7,19.2,30.30,SE,129,0.0,2.0,76,0.00,,CLR,0.00,VWS V14.00,2013-01-08 06:38:00,
2013-01-08 01:43:00,26.1,19.6,30.30,SE,126,0.0,0.0,76,0.00,,CLR,0.00,VWS V14.00,2013-01-08 06:43:00,
2013-01-08 01:48:00,26.3,19.8,30.30,SE,126,0.0,0.0,76,0.00,,CLR,0.00,VWS V14.00,2013-01-08 06:48:00,
2013-01-08 01:53:00,26.4,19.6,30.30,SE,126,0.0,1.0,75,0.00,,CLR,0.00,VWS V14.00,2013-01-08 06:53:00,
2013-01-08 01:58:00,26.6,19.8,30.30,SE,126,0.0,2.0,75,0.00,,CLR,0.00,VWS V14.00,2013-01-08 06:58:00,
2013-01-08 02:03:00,26.6,19.8,30.30,SE,126,0.0,2.0,75,0.00,,CLR,0.00,VWS V14.00,2013-01-08 07:03:00,
2013-01-08 02:08:00,26.7,19.5,30.30,ESE,107,1.0,2.0,74,0.00,,CLR,0.00,VWS V14.00,2013-01-08 07:08:00,
2013-01-08 02:13:00,26.7,19.5,30.30,ESE,107,0.0,0.0,74,0.00,,CLR,0.00,VWS V14.00,2013-01-08 07:13:00,
2013-01-08 02:18:00,26.9,19.7,30.30,ESE,106,0.0,0.0,74,0.00,,CLR,0.00,VWS V14.00,2013-01-08 07:18:00,
2013-01-08 02:23:00,26.9,19.7,30.30,ESE,107,0.0,0.0,74,0.00,,CLR,0.00,VWS V14.00,2013-01-08 07:23:00,
2013-01-08 02:28:00,26.9,19.7,30.30,ESE,106,0.0,1.0,74,0.00,,CLR,0.00,VWS V14.00,2013-01-08 07:28:00,
2013-01-08 02:33:00,26.9,19.7,30.29,ESE,107,0.0,0.0,74,0.00,,CLR,0.00,VWS V14.00,2013-01-08 07:33:00,
2013-01-08 02:38:00,26.9,19.7,30.29,ESE,106,2.0,2.0,74,0.00,,CLR,0.00,VWS V14.00,2013-01-08 07:38:00,
2013-01-08 02:43:00,26.9,19.7,30.29,ESE,104,0.0,2.0,74,0.00,,CLR,0.00,VWS V14.00,2013-01-08 07:43:00,
2013-01-08 02:48:00,27.2,20.0,30.28,ESE,105,0.0,1.0,74,0.00,,CLR,0.00,VWS V14.00,2013-01-08 07:48:00,
2013-01-08 02:53:00,27.5,20.3,30.28,ESE,105,1.0,1.0,74,0.00,,CLR,0.00,VWS V14.00,2013-01-08 07:53:00,
2013-01-08 02:58:00,27.6,20.4,30.28,ESE,105,0.0,2.0,74,0.00,,CLR,0.00,VWS V14.00,2013-01-08 07:58:00,
2013-01-08 03:03:00,27.5,20.3,30.27,ESE,105,0.0,3.0,74,0.00,,CLR,0.00,VWS V14.00,2013-01-08 08:03:00,
2013-01-08 03:08:00,27.5,20.3,30.27,ESE,106,1.0,1.0,74,0.00,,CLR,0.00,VWS V14.00,2013-01-08 08:08:00,
2013-01-08 03:13:00,27.5,20.3,30.27,SE,134,0.0,1.0,74,0.00,,CLR,0.00,VWS V14.00,2013-01-08 08:13:00,
2013-01-08 03:18:00,27.5,20.3,30.27,SE,134,0.0,1.0,74,0.00,,CLR,0.00,VWS V14.00,2013-01-08 08:18:00,
2013-01-08 03:23:00,27.5,20.3,30.27,ESE,113,1.0,2.0,74,0.00,,CLR,0.00,VWS V14.00,2013-01-08 08:23:00,
2013-01-08 03:28:00,27.5,20.6,30.27,SE,126,0.0,2.0,75,0.00,,CLR,0.00,VWS V14.00,2013-01-08 08:28:00,
2013-01-08 03:33:00,27.5,20.3,30.27,ESE,109,1.0,2.0,74,0.00,,CLR,0.00,VWS V14.00,2013-01-08 08:33:00,
2013-01-08 03:38:00,27.3,20.1,30.27,ESE,108,0.0,1.0,74,0.00,,CLR,0.00,VWS V14.00,2013-01-08 08:38:00,
2013-01-08 03:43:00,27.0,19.8,30.27,SE,146,2.0,2.0,74,0.00,,CLR,0.00,VWS V14.00,2013-01-08 08:43:00,
2013-01-08 03:48:00,27.0,20.1,30.27,East,96,1.0,2.0,75,0.00,,CLR,0.00,VWS V14.00,2013-01-08 08:48:00,
2013-01-08 03:53:00,27.3,20.4,30.27,ESE,122,1.0,4.0,75,0.00,,CLR,0.00,VWS V14.00,2013-01-08 08:53:00,
2013-01-08 03:58:00,27.6,20.7,30.27,SE,126,1.0,2.0,75,0.00,,CLR,0.00,VWS V14.00,2013-01-08 08:58:00,
2013-01-08 04:03:00,27.8,20.9,30.27,SSW,211,1.0,1.0,75,0.00,,CLR,0.00,VWS V14.00,2013-01-08 09:03:00,
2013-01-08 04:08:00,28.1,21.2,30.27,SE,145,2.0,3.0,75,0.00,,CLR,0.00,VWS V14.00,2013-01-08 09:08:00,
2013-01-08 04:13:00,28.1,21.2,30.27,SE,146,1.0,2.0,75,0.00,,CLR,0.00,VWS V14.00,2013-01-08 09:13:00,
2013-01-08 04:18:00,28.2,21.3,30.28,SSE,152,5.0,6.0,75,0.00,,CLR,0.00,VWS V14.00,2013-01-08 09:18:00,
2013-01-08 04:23:00,28.4,21.5,30.28,SSE,153,0.0,1.0,75,0.00,,CLR,0.00,VWS V14.00,2013-01-08 09:23:00,
2013-01-08 04:28:00,28.4,21.5,30.28,ESE,119,1.0,2.0,75,0.00,,CLR,0.00,VWS V14.00,2013-01-08 09:28:00,
2013-01-08 04:33:00,28.4,21.5,30.27,ESE,123,0.0,0.0,75,0.00,,CLR,0.00,VWS V14.00,2013-01-08 09:33:00,
2013-01-08 04:38:00,28.4,21.2,30.27,ESE,123,1.0,2.0,74,0.00,,CLR,0.00,VWS V14.00,2013-01-08 09:38:00,
2013-01-08 04:43:00,28.2,21.0,30.27,SSE,159,0.0,2.0,74,0.00,,CLR,0.00,VWS V14.00,2013-01-08 09:43:00,
2013-01-08 04:48:00,28.2,21.3,30.27,SE,145,0.0,2.0,75,0.00,,CLR,0.00,VWS V14.00,2013-01-08 09:48:00,
2013-01-08 04:54:00,28.4,21.5,30.27,SSE,154,1.0,3.0,75,0.00,,CLR,0.00,VWS V14.00,2013-01-08 09:54:00,
2013-01-08 04:59:00,28.4,21.5,30.27,SSE,148,0.0,1.0,75,0.00,,CLR,0.00,VWS V14.00,2013-01-08 09:59:00,
2013-01-08 05:04:00,28.4,21.5,30.27,SSE,149,0.0,3.0,75,0.00,,CLR,0.00,VWS V14.00,2013-01-08 10:04:00,
2013-01-08 05:09:00,28.4,21.5,30.27,SSE,159,0.0,1.0,75,0.00,,CLR,0.00,VWS V14.00,2013-01-08 10:09:00,
2013-01-08 05:14:00,28.4,21.5,30.27,South,177,2.0,5.0,75,0.00,,CLR,0.00,VWS V14.00,2013-01-08 10:14:00,
2013-01-08 05:19:00,28.4,21.5,30.29,SSE,162,0.0,2.0,75,0.00,,CLR,0.00,VWS V14.00,2013-01-08 10:19:00,
2013-01-08 05:24:00,28.5,21.9,30.29,SSE,156,2.0,5.0,76,0.00,,CLR,0.00,VWS V14.00,2013-01-08 10:24:00,
2013-01-08 05:29:00,28.8,22.2,30.29,SSE,154,1.0,1.0,76,0.00,,CLR,0.00,VWS V14.00,2013-01-08 10:29:00,
2013-01-08 05:34:00,29.0,22.4,30.29,ENE,78,1.0,3.0,76,0.00,,CLR,0.00,VWS V14.00,2013-01-08 10:34:00,
2013-01-08 05:39:00,29.1,22.5,30.29,SSE,163,4.0,6.0,76,0.00,,CLR,0.00,VWS V14.00,2013-01-08 10:39:00,
2013-01-08 05:44:00,29.3,22.7,30.29,SSE,167,1.0,5.0,76,0.00,,CLR,0.00,VWS V14.00,2013-01-08 10:44:00,
2013-01-08 05:49:00,29.4,22.8,30.29,SSE,155,1.0,2.0,76,0.00,,CLR,0.00,VWS V14.00,2013-01-08 10:49:00,
2013-01-08 05:54:00,29.5,22.6,30.29,South,186,0.0,1.0,75,0.00,,CLR,0.00,VWS V14.00,2013-01-08 10:54:00,
2013-01-08 05:59:00,29.5,22.6,30.29,SSE,156,1.0,2.0,75,0.00,,CLR,0.00,VWS V14.00,2013-01-08 10:59:00,
2013-01-08 06:04:00,29.7,22.8,30.29,South,179,1.0,4.0,75,0.00,,CLR,0.00,VWS V14.00,2013-01-08 11:04:00,
2013-01-08 06:09:00,29.7,22.8,30.29,SE,143,1.0,4.0,75,0.00,,CLR,0.00,VWS V14.00,2013-01-08 11:09:00,
2013-01-08 06:14:00,29.8,22.9,30.29,SE,143,2.0,2.0,75,0.00,,CLR,0.00,VWS V14.00,2013-01-08 11:14:00,
2013-01-08 06:19:00,29.8,22.5,30.29,South,189,0.0,0.0,74,0.00,,CLR,0.00,VWS V14.00,2013-01-08 11:19:00,
2013-01-08 06:24:00,29.8,22.5,30.29,SSE,165,2.0,4.0,74,0.00,,CLR,0.00,VWS V14.00,2013-01-08 11:24:00,
2013-01-08 06:29:00,29.8,22.5,30.29,SSW,203,0.0,1.0,74,0.00,,CLR,0.00,VWS V14.00,2013-01-08 11:29:00,
2013-01-08 06:34:00,29.8,22.5,30.29,SE,130,2.0,2.0,74,0.00,,CLR,0.00,VWS V14.00,2013-01-08 11:34:00,
2013-01-08 06:39:00,29.8,22.5,30.29,SE,136,1.0,2.0,74,0.00,,CLR,0.00,VWS V14.00,2013-01-08 11:39:00,
2013-01-08 06:44:00,29.8,22.5,30.29,SW,227,0.0,1.0,74,0.00,,CLR,0.00,VWS V14.00,2013-01-08 11:44:00,
2013-01-08 06:49:00,29.7,22.4,30.31,SSE,164,0.0,1.0,74,0.00,,CLR,0.00,VWS V14.00,2013-01-08 11:49:00,
2013-01-08 06:54:00,29.5,22.2,30.31,SSE,168,1.0,1.0,74,0.00,,CLR,0.00,VWS V14.00,2013-01-08 11:54:00,
2013-01-08 06:59:00,29.5,22.6,30.31,SW,231,1.0,3.0,75,0.00,,CLR,0.00,VWS V14.00,2013-01-08 11:59:00,
2013-01-08 07:04:00,29.5,22.6,30.32,SSE,163,2.0,3.0,75,0.00,,CLR,0.00,VWS V14.00,2013-01-08 12:04:00,
2013-01-08 07:09:00,29.5,22.6,30.32,SE,146,1.0,3.0,75,0.00,,CLR,0.00,VWS V14.00,2013-01-08 12:09:00,
2013-01-08 07:14:00,29.5,22.6,30.32,WSW,240,1.0,2.0,75,0.00,,CLR,0.00,VWS V14.00,2013-01-08 12:14:00,
2013-01-08 07:19:00,29.5,22.6,30.32,SSE,159,0.0,2.0,75,0.00,,CLR,0.00,VWS V14.00,2013-01-08 12:19:00,
2013-01-08 07:24:00,29.5,22.6,30.32,SW,215,4.0,4.0,75,0.00,,CLR,0.00,VWS V14.00,2013-01-08 12:24:00,
2013-01-08 07:29:00,29.5,22.6,30.32,WSW,255,0.0,5.0,75,0.00,,CLR,0.00,VWS V14.00,2013-01-08 12:29:00,
2013-01-08 07:34:00,29.5,22.6,30.33,WSW,255,0.0,1.0,75,0.00,,CLR,0.00,VWS V14.00,2013-01-08 12:34:00,
2013-01-08 07:39:00,29.4,22.5,30.33,SSE,157,0.0,3.0,75,0.00,,CLR,0.00,VWS V14.00,2013-01-08 12:39:00,
2013-01-08 07:44:00,29.5,22.9,30.33,SSE,154,1.0,1.0,76,0.00,,CLR,0.00,VWS V14.00,2013-01-08 12:44:00,
2013-01-08 07:49:00,29.5,22.9,30.33,WSW,243,2.0,2.0,76,0.00,,CLR,0.00,VWS V14.00,2013-01-08 12:49:00,
2013-01-08 07:54:00,29.7,23.1,30.33,East,84,0.0,1.0,76,0.00,,CLR,0.00,VWS V14.00,2013-01-08 12:54:00,
2013-01-08 07:59:00,29.7,23.1,30.33,SSE,159,0.0,5.0,76,0.00,,CLR,0.00,VWS V14.00,2013-01-08 12:59:00,
2013-01-08 08:04:00,29.8,23.2,30.34,WSW,242,0.0,1.0,76,0.00,,CLR,0.00,VWS V14.00,2013-01-08 13:04:00,
2013-01-08 08:09:00,29.8,23.2,30.34,SE,145,1.0,3.0,76,0.00,,CLR,0.00,VWS V14.00,2013-01-08 13:09:00,
2013-01-08 08:14:00,30.0,23.0,30.34,SSW,211,0.0,1.0,75,0.00,,CLR,0.00,VWS V14.00,2013-01-08 13:14:00,
2013-01-08 08:19:00,30.1,23.1,30.34,SSE,154,2.0,3.0,75,0.00,,CLR,0.00,VWS V14.00,2013-01-08 13:19:00,
2013-01-08 08:24:00,30.3,23.3,30.34,NE,44,3.0,4.0,75,0.00,,CLR,0.00,VWS V14.00,2013-01-08 13:24:00,
2013-01-08 08:29:00,30.4,23.4,30.34,SSE,154,0.0,1.0,75,0.00,,CLR,0.00,VWS V14.00,2013-01-08 13:29:00,
2013-01-08 08:34:00,30.6,23.6,30.34,SW,223,1.0,2.0,75,0.00,,CLR,0.00,VWS V14.00,2013-01-08 13:34:00,
2013-01-08 08:39:00,30.6,23.6,30.34,SSE,150,2.0,4.0,75,0.00,,CLR,0.00,VWS V14.00,2013-01-08 13:39:00,
2013-01-08 08:44:00,30.9,23.9,30.34,South,175,0.0,1.0,75,0.00,,CLR,0.00,VWS V14.00,2013-01-08 13:44:00,
2013-01-08 08:49:00,31.2,23.9,30.34,SSW,201,0.0,1.0,74,0.00,,,0.00,VWS V14.00,2013-01-08 13:49:00,
2013-01-08 08:54:00,31.3,24.0,30.34,SW,227,0.0,2.0,74,0.00,,,0.00,VWS V14.00,2013-01-08 13:54:00,
2013-01-08 08:59:00,31.6,24.0,30.34,SW,236,1.0,3.0,73,0.00,,,0.00,VWS V14.00,2013-01-08 13:59:00,
2013-01-08 09:04:00,31.9,24.2,30.34,SW,236,3.0,4.0,73,0.00,,,0.00,VWS V14.00,2013-01-08 14:04:00,
2013-01-08 09:10:00,32.1,24.4,30.34,SW,228,0.0,6.0,73,0.00,,,0.00,VWS V14.00,2013-01-08 14:10:00,
2013-01-08 09:15:00,32.4,24.4,30.34,SSW,200,3.0,3.0,72,0.00,,,0.00,VWS V14.00,2013-01-08 14:15:00,
2013-01-08 09:20:00,32.7,24.7,30.34,WSW,252,0.0,1.0,72,0.00,,,0.00,VWS V14.00,2013-01-08 14:20:00,
2013-01-08 09:25:00,32.8,24.5,30.34,SW,221,5.0,5.0,71,0.00,,,0.00,VWS V14.00,2013-01-08 14:25:00,
2013-01-08 09:30:00,33.1,24.7,30.34,SW,229,2.0,2.0,71,0.00,,,0.00,VWS V14.00,2013-01-08 14:30:00,
2013-01-08 09:35:00,33.2,24.8,30.34,SW,228,3.0,4.0,71,0.00,,,0.00,VWS V14.00,2013-01-08 14:35:00,
2013-01-08 09:40:00,33.7,25.0,30.34,SW,228,2.0,3.0,70,0.00,,,0.00,VWS V14.00,2013-01-08 14:40:00,
2013-01-08 09:45:00,34.0,24.9,30.33,West,279,4.0,4.0,69,0.00,,,0.00,VWS V14.00,2013-01-08 14:45:00,
2013-01-08 09:50:00,34.4,25.3,30.33,WSW,241,2.0,3.0,69,0.00,,,0.00,VWS V14.00,2013-01-08 14:50:00,
2013-01-08 09:55:00,34.9,25.1,30.33,WSW,245,2.0,4.0,67,0.00,,,0.00,VWS V14.00,2013-01-08 14:55:00,
2013-01-08 10:00:00,35.2,25.4,30.34,SSW,207,1.0,6.0,67,0.00,,,0.00,VWS V14.00,2013-01-08 15:00:00,
2013-01-08 10:05:00,35.5,25.3,30.34,WSW,248,3.0,6.0,66,0.00,,,0.00,VWS V14.00,2013-01-08 15:05:00,
2013-01-08 10:10:00,35.6,25.4,30.34,West,267,6.0,6.0,66,0.00,,,0.00,VWS V14.00,2013-01-08 15:10:00,
2013-01-08 10:15:00,35.8,25.2,30.34,WSW,239,3.0,6.0,65,0.00,,,0.00,VWS V14.00,2013-01-08 15:15:00,
2013-01-08 10:20:00,35.9,25.7,30.34,SSW,194,2.0,6.0,66,0.00,,,0.00,VWS V14.00,2013-01-08 15:20:00,
2013-01-08 10:25:00,36.0,25.4,30.34,ESE,121,1.0,5.0,65,0.00,,,0.00,VWS V14.00,2013-01-08 15:25:00,
2013-01-08 10:30:00,36.3,25.3,30.33,SW,229,3.0,6.0,64,0.00,,,0.00,VWS V14.00,2013-01-08 15:30:00,
2013-01-08 10:35:00,36.5,25.5,30.33,SSW,205,3.0,5.0,64,0.00,,,0.00,VWS V14.00,2013-01-08 15:35:00,
2013-01-08 10:40:00,36.8,25.8,30.33,SSW,208,1.0,4.0,64,0.00,,,0.00,VWS V14.00,2013-01-08 15:40:00,
2013-01-08 10:45:00,37.0,25.6,30.32,SW,214,2.0,10.0,63,0.00,,CLR,0.00,VWS V14.00,2013-01-08 15:45:00,
2013-01-08 10:50:00,37.2,25.8,30.32,WSW,240,5.0,9.0,63,0.00,,CLR,0.00,VWS V14.00,2013-01-08 15:50:00,
2013-01-08 10:55:00,37.3,25.9,30.32,SW,220,5.0,6.0,63,0.00,,CLR,0.00,VWS V14.00,2013-01-08 15:55:00,
2013-01-08 11:00:00,37.5,26.1,30.32,SW,221,4.0,4.0,63,0.00,,CLR,0.00,VWS V14.00,2013-01-08 16:00:00,
2013-01-08 11:05:00,37.8,26.0,30.32,SW,234,3.0,5.0,62,0.00,,CLR,0.00,VWS V14.00,2013-01-08 16:05:00,
2013-01-08 11:10:00,38.0,26.1,30.32,SW,232,2.0,4.0,62,0.00,,CLR,0.00,VWS V14.00,2013-01-08 16:10:00,
2013-01-08 11:15:00,38.3,26.0,30.30,SSW,207,4.0,7.0,61,0.00,,CLR,0.00,VWS V14.00,2013-01-08 16:15:00,
2013-01-08 11:20:00,38.5,26.2,30.30,SSW,213,3.0,6.0,61,0.00,,CLR,0.00,VWS V14.00,2013-01-08 16:20:00,
2013-01-08 11:25:00,38.8,26.1,30.30,WSW,240,2.0,5.0,60,0.00,,CLR,0.00,VWS V14.00,2013-01-08 16:25:00,
2013-01-08 11:30:00,38.9,26.2,30.30,SW,229,3.0,4.0,60,0.00,,CLR,0.00,VWS V14.00,2013-01-08 16:30:00,
2013-01-08 11:35:00,39.1,26.4,30.30,SSW,204,3.0,4.0,60,0.00,,CLR,0.00,VWS V14.00,2013-01-08 16:35:00,
2013-01-08 11:40:00,39.1,26.4,30.30,SW,229,2.0,2.0,60,0.00,,CLR,0.00,VWS V14.00,2013-01-08 16:40:00,
2013-01-08 11:45:00,39.5,26.8,30.29,SW,221,5.0,5.0,60,0.00,,CLR,0.00,VWS V14.00,2013-01-08 16:45:00,
2013-01-08 11:50:00,39.8,26.7,30.29,SW,233,1.0,2.0,59,0.00,,CLR,0.00,VWS V14.00,2013-01-08 16:50:00,
2013-01-08 11:55:00,40.3,27.5,30.29,SW,227,2.0,3.0,60,0.00,,CLR,0.00,VWS V14.00,2013-01-08 16:55:00,
2013-01-08 12:01:00,40.6,27.0,30.27,South,175,2.0,3.0,58,0.00,,CLR,0.00,VWS V14.00,2013-01-08 17:01:00,
2013-01-08 12:06:00,40.8,27.2,30.27,WSW,246,1.0,4.0,58,0.00,,CLR,0.00,VWS V14.00,2013-01-08 17:06:00,
2013-01-08 12:11:00,40.8,27.2,30.27,WSW,238,2.0,4.0,58,0.00,,CLR,0.00,VWS V14.00,2013-01-08 17:11:00,
2013-01-08 12:16:00,41.1,27.0,30.27,SW,229,2.0,4.0,57,0.00,,CLR,0.00,VWS V14.00,2013-01-08 17:16:00,
2013-01-08 12:21:00,41.2,27.1,30.27,SW,233,4.0,7.0,57,0.00,,CLR,0.00,VWS V14.00,2013-01-08 17:21:00,
2013-01-08 12:26:00,41.2,26.7,30.27,SW,226,4.0,5.0,56,0.00,,CLR,0.00,VWS V14.00,2013-01-08 17:26:00,
2013-01-08 12:31:00,41.2,26.7,30.26,WSW,251,4.0,6.0,56,0.00,,CLR,0.00,VWS V14.00,2013-01-08 17:31:00,
2013-01-08 12:36:00,41.3,26.8,30.26,SW,230,2.0,4.0,56,0.00,,CLR,0.00,VWS V14.00,2013-01-08 17:36:00,
2013-01-08 12:41:00,41.6,27.5,30.26,SW,226,2.0,9.0,57,0.00,,CLR,0.00,VWS V14.00,2013-01-08 17:41:00,
2013-01-08 12:46:00,41.8,26.8,30.26,SSW,211,2.0,3.0,55,0.00,,CLR,0.00,VWS V14.00,2013-01-08 17:46:00,
2013-01-08 12:51:00,42.1,27.1,30.26,SW,222,2.0,4.0,55,0.00,,CLR,0.00,VWS V14.00,2013-01-08 17:51:00,
2013-01-08 12:56:00,42.1,26.7,30.26,SSW,213,3.0,5.0,54,0.00,,CLR,0.00,VWS V14.00,2013-01-08 17:56:00,
2013-01-08 13:01:00,42.3,27.3,30.25,SW,214,2.0,3.0,55,0.00,,CLR,0.00,VWS V14.00,2013-01-08 18:01:00,
2013-01-08 13:06:00,42.5,27.0,30.25,West,271,4.0,5.0,54,0.00,,CLR,0.00,VWS V14.00,2013-01-08 18:06:00,
2013-01-08 13:11:00,42.6,27.1,30.25,WSW,239,3.0,4.0,54,0.00,,CLR,0.00,VWS V14.00,2013-01-08 18:11:00,
2013-01-08 13:16:00,42.8,26.9,30.25,SSW,210,2.0,6.0,53,0.00,,CLR,0.00,VWS V14.00,2013-01-08 18:16:00,
2013-01-08 13:21:00,42.8,26.9,30.25,WSW,240,2.0,6.0,53,0.00,,CLR,0.00,VWS V14.00,2013-01-08 18:21:00,
2013-01-08 13:26:00,42.8,26.9,30.25,SSW,211,3.0,5.0,53,0.00,,CLR,0.00,VWS V14.00,2013-01-08 18:26:00,
2013-01-08 13:31:00,42.8,26.9,30.25,WSW,247,2.0,5.0,53,0.00,,CLR,0.00,VWS V14.00,2013-01-08 18:31:00,
2013-01-08 13:36:00,42.9,27.0,30.25,WSW,239,1.0,4.0,53,0.00,,CLR,0.00,VWS V14.00,2013-01-08 18:36:00,
2013-01-08 13:41:00,42.9,27.0,30.25,WSW,242,2.0,9.0,53,0.00,,CLR,0.00,VWS V14.00,2013-01-08 18:41:00,
2013-01-08 13:46:00,43.1,27.1,30.26,SW,229,1.0,4.0,53,0.00,,CLR,0.00,VWS V14.00,2013-01-08 18:46:00,
2013-01-08 13:51:00,43.2,27.2,30.26,West,262,6.0,6.0,53,0.00,,CLR,0.00,VWS V14.00,2013-01-08 18:51:00,
2013-01-08 13:56:00,43.2,27.2,30.26,SW,232,4.0,4.0,53,0.00,,CLR,0.00,VWS V14.00,2013-01-08 18:56:00,
2013-01-08 14:01:00,43.3,27.3,30.25,West,271,2.0,4.0,53,0.00,,CLR,0.00,VWS V14.00,2013-01-08 19:01:00,
2013-01-08 14:06:00,43.5,27.5,30.25,South,171,2.0,5.0,53,0.00,,CLR,0.00,VWS V14.00,2013-01-08 19:06:00,
2013-01-08 14:11:00,43.6,27.1,30.25,West,270,4.0,4.0,52,0.00,,CLR,0.00,VWS V14.00,2013-01-08 19:11:00,
2013-01-08 14:16:00,43.8,27.8,30.25,SW,218,3.0,3.0,53,0.00,,CLR,0.00,VWS V14.00,2013-01-08 19:16:00,
2013-01-08 14:21:00,44.1,27.1,30.25,SSW,198,1.0,5.0,51,0.00,,CLR,0.00,VWS V14.00,2013-01-08 19:21:00,
2013-01-08 14:26:00,43.9,27.4,30.25,WSW,246,0.0,5.0,52,0.00,,CLR,0.00,VWS V14.00,2013-01-08 19:26:00,
2013-01-08 14:31:00,43.8,27.8,30.24,SE,145,1.0,2.0,53,0.00,,CLR,0.00,VWS V14.00,2013-01-08 19:31:00,
2013-01-08 14:36:00,43.8,27.8,30.24,SSE,164,1.0,3.0,53,0.00,,CLR,0.00,VWS V14.00,2013-01-08 19:36:00,
2013-01-08 14:41:00,43.9,27.4,30.24,SW,221,3.0,3.0,52,0.00,,CLR,0.00,VWS V14.00,2013-01-08 19:41:00,
2013-01-08 14:46:00,43.9,27.4,30.23,WSW,239,1.0,2.0,52,0.00,,CLR,0.00,VWS V14.00,2013-01-08 19:46:00,
2013-01-08 14:51:00,43.9,27.9,30.23,WNW,294,1.0,2.0,53,0.00,,CLR,0.00,VWS V14.00,2013-01-08 19:51:00,
2013-01-08 14:56:00,43.8,27.3,30.23,West,265,2.0,3.0,52,0.00,,CLR,0.00,VWS V14.00,2013-01-08 19:56:00,
2013-01-08 15:01:00,43.5,27.5,30.23,West,261,1.0,2.0,53,0.00,,CLR,0.00,VWS V14.00,2013-01-08 20:01:00,
2013-01-08 15:06:00,43.5,27.5,30.23,WSW,255,1.0,2.0,53,0.00,,CLR,0.00,VWS V14.00,2013-01-08 20:06:00,
2013-01-08 15:11:00,43.2,27.2,30.23,WSW,255,0.0,1.0,53,0.00,,CLR,0.00,VWS V14.00,2013-01-08 20:11:00,
2013-01-08 15:16:00,43.1,27.6,30.25,WSW,248,1.0,3.0,54,0.00,,CLR,0.00,VWS V14.00,2013-01-08 20:16:00,
2013-01-08 15:21:00,43.1,27.1,30.25,SSW,213,0.0,5.0,53,0.00,,CLR,0.00,VWS V14.00,2013-01-08 20:21:00,
2013-01-08 15:26:00,43.2,27.7,30.25,SW,214,2.0,3.0,54,0.00,,CLR,0.00,VWS V14.00,2013-01-08 20:26:00,
2013-01-08 15:31:00,43.2,27.2,30.25,WSW,238,0.0,2.0,53,0.00,,CLR,0.00,VWS V14.00,2013-01-08 20:31:00,
2013-01-08 15:36:00,43.2,27.2,30.25,SW,230,0.0,2.0,53,0.00,,CLR,0.00,VWS V14.00,2013-01-08 20:36:00,
2013-01-08 15:42:00,43.2,27.2,30.25,SW,234,0.0,1.0,53,0.00,,CLR,0.00,VWS V14.00,2013-01-08 20:42:00,
2013-01-08 15:47:00,43.2,27.2,30.25,SW,220,1.0,5.0,53,0.00,,CLR,0.00,VWS V14.00,2013-01-08 20:47:00,
2013-01-08 15:52:00,43.2,27.2,30.25,WSW,238,1.0,4.0,53,0.00,,CLR,0.00,VWS V14.00,2013-01-08 20:52:00,
2013-01-08 15:57:00,43.2,27.2,30.25,SSW,208,0.0,2.0,53,0.00,,CLR,0.00,VWS V14.00,2013-01-08 20:57:00,
2013-01-08 16:02:00,43.1,27.1,30.25,SSW,208,3.0,3.0,53,0.00,,CLR,0.00,VWS V14.00,2013-01-08 21:02:00,
2013-01-08 16:07:00,42.9,27.0,30.25,SSW,208,0.0,3.0,53,0.00,,CLR,0.00,VWS V14.00,2013-01-08 21:07:00,
2013-01-08 16:12:00,42.8,26.9,30.25,SW,221,0.0,0.0,53,0.00,,CLR,0.00,VWS V14.00,2013-01-08 21:12:00,
2013-01-08 16:17:00,42.6,27.1,30.25,SW,221,0.0,0.0,54,0.00,,CLR,0.00,VWS V14.00,2013-01-08 21:17:00,
2013-01-08 16:22:00,42.5,27.0,30.25,SW,221,0.0,1.0,54,0.00,,CLR,0.00,VWS V14.00,2013-01-08 21:22:00,
2013-01-08 16:27:00,42.3,26.9,30.25,SW,221,0.0,1.0,54,0.00,,CLR,0.00,VWS V14.00,2013-01-08 21:27:00,
2013-01-08 16:32:00,42.3,26.9,30.26,SW,221,0.0,2.0,54,0.00,,CLR,0.00,VWS V14.00,2013-01-08 21:32:00,
2013-01-08 16:37:00,42.3,26.9,30.26,SW,221,0.0,1.0,54,0.00,,CLR,0.00,VWS V14.00,2013-01-08 21:37:00,
2013-01-08 16:42:00,42.2,26.8,30.26,SW,221,0.0,0.0,54,0.00,,CLR,0.00,VWS V14.00,2013-01-08 21:42:00,
2013-01-08 16:47:00,42.1,26.7,30.27,SW,221,0.0,0.0,54,0.00,,CLR,0.00,VWS V14.00,2013-01-08 21:47:00,
2013-01-08 16:52:00,41.9,26.9,30.27,SW,221,0.0,0.0,55,0.00,,CLR,0.00,VWS V14.00,2013-01-08 21:52:00,
2013-01-08 16:57:00,41.6,26.6,30.27,SW,221,0.0,0.0,55,0.00,,CLR,0.00,VWS V14.00,2013-01-08 21:57:00,
2013-01-08 17:02:00,41.5,26.5,30.26,SW,221,0.0,0.0,55,0.00,,CLR,0.00,VWS V14.00,2013-01-08 22:02:00,
2013-01-08 17:07:00,41.2,26.7,30.26,SW,221,0.0,1.0,56,0.00,,CLR,0.00,VWS V14.00,2013-01-08 22:07:00,
2013-01-08 17:12:00,41.1,26.6,30.26,SW,221,0.0,0.0,56,0.00,,CLR,0.00,VWS V14.00,2013-01-08 22:12:00,
2013-01-08 17:17:00,40.9,26.9,30.27,SW,221,0.0,1.0,57,0.00,,CLR,0.00,VWS V14.00,2013-01-08 22:17:00,
2013-01-08 17:22:00,40.6,26.6,30.27,SW,221,0.0,0.0,57,0.00,,CLR,0.00,VWS V14.00,2013-01-08 22:22:00,
2013-01-08 17:27:00,40.6,27.0,30.27,SW,221,0.0,0.0,58,0.00,,CLR,0.00,VWS V14.00,2013-01-08 22:27:00,
2013-01-08 17:32:00,40.5,26.9,30.27,SW,221,0.0,0.0,58,0.00,,CLR,0.00,VWS V14.00,2013-01-08 22:32:00,
2013-01-08 17:37:00,40.3,26.7,30.27,SW,221,0.0,0.0,58,0.00,,CLR,0.00,VWS V14.00,2013-01-08 22:37:00,
2013-01-08 17:42:00,40.2,27.0,30.27,SW,221,0.0,0.0,59,0.00,,CLR,0.00,VWS V14.00,2013-01-08 22:42:00,
2013-01-08 17:47:00,40.1,26.9,30.27,SW,221,0.0,1.0,59,0.00,,CLR,0.00,VWS V14.00,2013-01-08 22:47:00,
2013-01-08 17:52:00,40.1,26.9,30.27,SW,221,0.0,0.0,59,0.00,,CLR,0.00,VWS V14.00,2013-01-08 22:52:00,
2013-01-08 17:57:00,39.9,27.2,30.27,SW,221,0.0,1.0,60,0.00,,CLR,0.00,VWS V14.00,2013-01-08 22:57:00,
2013-01-08 18:02:00,39.9,27.2,30.28,SW,221,0.0,1.0,60,0.00,,CLR,0.00,VWS V14.00,2013-01-08 23:02:00,
2013-01-08 18:07:00,39.9,27.2,30.28,ESE,116,0.0,1.0,60,0.00,,CLR,0.00,VWS V14.00,2013-01-08 23:07:00,
2013-01-08 18:12:00,39.9,27.2,30.28,ESE,117,1.0,1.0,60,0.00,,CLR,0.00,VWS V14.00,2013-01-08 23:12:00,
2013-01-08 18:17:00,39.9,27.2,30.28,ESE,117,0.0,0.0,60,0.00,,CLR,0.00,VWS V14.00,2013-01-08 23:17:00,
2013-01-08 18:22:00,39.9,27.2,30.28,ESE,117,0.0,0.0,60,0.00,,CLR,0.00,VWS V14.00,2013-01-08 23:22:00,
2013-01-08 18:27:00,40.1,27.4,30.28,ESE,117,0.0,0.0,60,0.00,,CLR,0.00,VWS V14.00,2013-01-08 23:27:00,
2013-01-08 18:33:00,40.1,27.4,30.28,ESE,117,0.0,1.0,60,0.00,,CLR,0.00,VWS V14.00,2013-01-08 23:33:00,
2013-01-08 18:38:00,39.9,27.2,30.28,ESE,117,0.0,0.0,60,0.00,,CLR,0.00,VWS V14.00,2013-01-08 23:38:00,
2013-01-08 18:43:00,39.9,27.2,30.28,ESE,117,0.0,0.0,60,0.00,,CLR,0.00,VWS V14.00,2013-01-08 23:43:00,
2013-01-08 18:48:00,39.9,27.6,30.28,ESE,117,0.0,1.0,61,0.00,,CLR,0.00,VWS V14.00,2013-01-08 23:48:00,
2013-01-08 18:53:00,39.8,27.5,30.28,ESE,117,0.0,2.0,61,0.00,,CLR,0.00,VWS V14.00,2013-01-08 23:53:00,
2013-01-08 18:58:00,39.8,27.5,30.28,ESE,117,0.0,1.0,61,0.00,,CLR,0.00,VWS V14.00,2013-01-08 23:58:00,
2013-01-08 19:03:00,39.8,27.5,30.28,ESE,117,0.0,1.0,61,0.00,,CLR,0.00,VWS V14.00,2013-01-09 00:03:00,
2013-01-08 19:08:00,39.8,27.5,30.28,ESE,117,0.0,2.0,61,0.00,,CLR,0.00,VWS V14.00,2013-01-09 00:08:00,
2013-01-08 19:13:00,39.8,27.5,30.28,ESE,117,2.0,2.0,61,0.00,,CLR,0.00,VWS V14.00,2013-01-09 00:13:00,
2013-01-08 19:18:00,39.6,27.3,30.29,ESE,117,0.0,2.0,61,0.00,,CLR,0.00,VWS V14.00,2013-01-09 00:18:00,
2013-01-08 19:23:00,39.6,27.3,30.29,ESE,117,0.0,0.0,61,0.00,,CLR,0.00,VWS V14.00,2013-01-09 00:23:00,
2013-01-08 19:28:00,39.5,27.6,30.29,ESE,117,0.0,0.0,62,0.00,,CLR,0.00,VWS V14.00,2013-01-09 00:28:00,
2013-01-08 19:33:00,39.5,27.6,30.30,ESE,117,0.0,0.0,62,0.00,,CLR,0.00,VWS V14.00,2013-01-09 00:33:00,
2013-01-08 19:38:00,39.3,27.4,30.30,ESE,117,0.0,0.0,62,0.00,,CLR,0.00,VWS V14.00,2013-01-09 00:38:00,
2013-01-08 19:43:00,39.2,27.3,30.30,ESE,117,0.0,0.0,62,0.00,,CLR,0.00,VWS V14.00,2013-01-09 00:43:00,
2013-01-08 20:45:00,37.0,26.7,30.30,ESE,115,1.0,2.0,66,0.00,,,0.00,VWS V14.00,2013-01-09 01:45:00,
2013-01-08 20:50:00,36.8,26.9,30.30,ESE,115,0.0,1.0,67,0.00,,CLR,0.00,VWS V14.00,2013-01-09 01:50:00,
2013-01-08 20:55:00,36.8,26.9,30.30,ESE,115,0.0,0.0,67,0.00,,CLR,0.00,VWS V14.00,2013-01-09 01:55:00,
2013-01-08 21:00:00,36.9,27.0,30.30,ESE,115,0.0,2.0,67,0.00,,CLR,0.00,VWS V14.00,2013-01-09 02:00:00,
2013-01-08 21:05:00,36.9,27.0,30.30,ESE,115,1.0,2.0,67,0.00,,CLR,0.00,VWS V14.00,2013-01-09 02:05:00,
2013-01-08 21:10:00,36.9,27.0,30.30,ESE,115,1.0,2.0,67,0.00,,CLR,0.00,VWS V14.00,2013-01-09 02:10:00,
2013-01-08 21:15:00,36.8,26.9,30.30,ESE,115,2.0,3.0,67,0.00,,CLR,0.00,VWS V14.00,2013-01-09 02:15:00,
2013-01-08 21:20:00,36.6,26.7,30.30,ENE,74,2.0,3.0,67,0.00,,CLR,0.00,VWS V14.00,2013-01-09 02:20:00,
2013-01-08 21:25:00,36.5,26.6,30.30,ENE,74,1.0,3.0,67,0.00,,CLR,0.00,VWS V14.00,2013-01-09 02:25:00,
2013-01-08 21:30:00,36.5,26.6,30.29,ENE,74,2.0,2.0,67,0.00,,CLR,0.00,VWS V14.00,2013-01-09 02:30:00,
2013-01-08 21:35:00,36.2,26.7,30.29,ENE,74,0.0,0.0,68,0.00,,CLR,0.00,VWS V14.00,2013-01-09 02:35:00,
2013-01-08 21:40:00,36.2,26.7,30.29,ENE,74,0.0,0.0,68,0.00,,CLR,0.00,VWS V14.00,2013-01-09 02:40:00,
2013-01-08 21:45:00,36.0,26.5,30.30,ENE,74,0.0,0.0,68,0.00,,CLR,0.00,VWS V14.00,2013-01-09 02:45:00,
2013-01-08 21:50:00,35.9,26.0,30.30,ENE,74,0.0,0.0,67,0.00,,CLR,0.00,VWS V14.00,2013-01-09 02:50:00,
2013-01-08 21:55:00,35.8,25.9,30.30,ENE,74,0.0,1.0,67,0.00,,CLR,0.00,VWS V14.00,2013-01-09 02:55:00,
2013-01-08 22:00:00,35.6,26.1,30.31,ENE,74,0.0,0.0,68,0.00,,CLR,0.00,VWS V14.00,2013-01-09 03:00:00,
2013-01-08 22:05:00,35.3,25.8,30.31,ENE,74,0.0,0.0,68,0.00,,CLR,0.00,VWS V14.00,2013-01-09 03:05:00,
2013-01-08 22:10:00,35.2,25.7,30.31,ENE,74,1.0,1.0,68,0.00,,CLR,0.00,VWS V14.00,2013-01-09 03:10:00,
2013-01-08 22:15:00,35.0,25.5,30.30,ENE,74,0.0,1.0,68,0.00,,CLR,0.00,VWS V14.00,2013-01-09 03:15:00,
2013-01-08 22:20:00,34.9,25.8,30.30,ENE,74,0.0,0.0,69,0.00,,CLR,0.00,VWS V14.00,2013-01-09 03:20:00,
2013-01-08 22:25:00,34.9,25.8,30.30,ENE,74,1.0,1.0,69,0.00,,CLR,0.00,VWS V14.00,2013-01-09 03:25:00,
2013-01-08 22:30:00,34.9,25.8,30.31,ENE,74,0.0,0.0,69,0.00,,CLR,0.00,VWS V14.00,2013-01-09 03:30:00,
2013-01-08 22:35:00,34.7,25.6,30.31,ENE,74,0.0,1.0,69,0.00,,CLR,0.00,VWS V14.00,2013-01-09 03:35:00,
2013-01-08 22:40:00,34.6,25.5,30.31,ENE,74,0.0,0.0,69,0.00,,CLR,0.00,VWS V14.00,2013-01-09 03:40:00,
2013-01-08 22:45:00,34.4,25.3,30.31,ENE,74,0.0,0.0,69,0.00,,CLR,0.00,VWS V14.00,2013-01-09 03:45:00,
2013-01-08 22:50:00,34.4,25.3,30.31,ENE,74,0.0,1.0,69,0.00,,CLR,0.00,VWS V14.00,2013-01-09 03:50:00,
2013-01-08 22:55:00,34.3,25.5,30.31,ENE,74,1.0,1.0,70,0.00,,CLR,0.00,VWS V14.00,2013-01-09 03:55:00,
2013-01-08 23:00:00,34.3,25.5,30.31,ENE,74,0.0,1.0,70,0.00,,CLR,0.00,VWS V14.00,2013-01-09 04:00:00,
2013-01-08 23:05:00,34.3,25.5,30.31,ENE,74,0.0,0.0,70,0.00,,CLR,0.00,VWS V14.00,2013-01-09 04:05:00,
2013-01-08 23:10:00,34.3,25.9,30.31,ENE,74,0.0,1.0,71,0.00,,CLR,0.00,VWS V14.00,2013-01-09 04:10:00,
2013-01-08 23:15:00,34.4,26.0,30.30,ENE,74,0.0,1.0,71,0.00,,CLR,0.00,VWS V14.00,2013-01-09 04:15:00,
2013-01-08 23:20:00,34.3,25.5,30.30,ENE,74,1.0,2.0,70,0.00,,CLR,0.00,VWS V14.00,2013-01-09 04:20:00,
2013-01-08 23:25:00,34.1,25.7,30.30,ENE,74,0.0,0.0,71,0.00,,CLR,0.00,VWS V14.00,2013-01-09 04:25:00,
2013-01-08 23:30:00,34.1,25.7,30.30,ENE,74,0.0,0.0,71,0.00,,CLR,0.00,VWS V14.00,2013-01-09 04:30:00,